Vorticity
nan nan nan nan nan nan nan nan nan nan nan nan nan nan nan nan nan nan nan nan nan nan nan nan nan nan nan nan nan nan nan nan nan nan nan nan nan nan nan nan nan nan nan nan nan nan nan
nan 9 7 6 7 7 8 8 8 7 10 10 8 6 9 8 7 9 8 8 9 7 7 18 19 6 5 7 13 11 6 10 9 7 7 6 9 9 5 8 8 10 10 9 8 8 nan
nan 6 9 9 7 7 9 8 10 11 9 10 11 9 7 9 9 8 10 9 8 8 6 17 19 4 6 8 3 7 6 7 8 6 7 7 7 12 8 6 9 10 5 8 10 9 nan
nan 8 7 7 9 7 8 10 10 11 11 8 7 10 10 9 10 10 11 9 8 9 8 19 18 -0 6 14 6 5 6 7 10 15 11 7 8 8 9 9 8 6 7 10 11 8 nan
nan 8 7 7 8 10 8 7 10 10 9 12 12 11 11 9 7 11 11 9 10 12 11 21 17 6 8 11 15 6 6 8 9 9 15 7 5 10 9 9 7 7 7 4 9 14 nan
nan 7 7 8 9 10 9 9 9 10 11 11 12 11 10 10 11 12 12 19 21 17 16 18 7 8 13 10 11 8 7 10 10 7 9 5 6 8 7 8 7 5 5 8 7 9 nan
nan 7 7 9 9 11 11 10 11 11 10 11 10 9 10 11 12 10 14 16 20 20 12 11 2 -2 17 15 13 9 7 9 8 7 8 8 8 10 7 2 2 4 7 9 6 9 nan
nan 8 9 8 10 9 10 11 10 10 9 9 9 9 10 8 10 12 13 9 11 10 14 12 6 6 8 8 10 9 6 8 9 8 6 9 10 10 10 7 4 6 8 8 6 8 nan
nan 8 10 10 10 8 9 10 10 9 9 8 11 11 8 10 12 19 13 13 9 8 14 16 11 13 0 4 13 12 3 6 8 9 8 5 9 11 7 11 13 7 11 13 9 7 nan
nan 8 9 9 8 9 10 9 10 9 10 11 10 9 7 13 18 14 10 16 8 5 14 15 12 15 6 5 13 9 7 5 9 11 6 2 9 12 11 9 9 6 12 13 11 12 nan
nan 8 7 9 9 10 9 10 11 10 11 11 10 6 8 20 21 8 12 12 3 3 15 11 10 11 8 11 11 7 5 10 12 7 8 9 10 9 6 11 10 8 7 6 7 7 nan
nan 9 9 10 10 10 9 10 9 10 11 9 7 7 17 23 15 14 10 3 6 7 11 10 12 9 10 9 4 13 7 9 12 12 6 9 8 12 9 7 10 10 6 6 8 8 nan
nan 8 10 11 10 9 9 9 9 10 10 8 7 10 25 18 12 15 9 4 9 9 13 14 16 13 5 8 11 11 7 7 6 8 8 9 8 7 9 9 6 7 6 8 9 11 nan
nan 8 9 10 10 9 9 8 9 10 9 9 10 25 26 13 14 8 4 9 7 8 12 17 17 3 5 8 9 9 5 5 5 7 13 8 9 13 7 9 10 6 6 8 8 6 nan
nan 9 8 10 9 10 10 9 9 11 15 22 27 24 12 16 11 6 8 8 6 10 17 12 5 3 8 7 11 9 8 7 9 6 6 6 13 14 10 6 7 9 9 7 7 8 nan
nan 8 9 10 9 9 9 9 10 11 19 33 27 9 8 9 8 7 9 8 10 12 17 4 1 12 12 9 7 12 11 7 11 7 3 8 15 10 8 7 8 11 6 5 9 11 nan
nan 8 10 10 9 9 9 9 9 13 23 25 14 9 5 9 11 8 7 9 9 17 6 -1 10 14 11 8 9 12 8 9 11 10 5 6 8 9 9 9 9 7 8 7 11 8 nan
nan 9 11 10 9 10 9 9 9 12 25 25 12 8 8 11 11 10 8 7 9 14 8 12 11 13 10 7 8 9 11 9 15 10 5 8 9 12 9 11 11 8 9 7 5 9 nan
nan 9 9 10 10 8 8 9 9 11 25 22 12 9 9 8 8 9 10 11 8 6 16 16 13 18 11 4 8 8 8 16 18 11 10 4 5 9 10 13 17 12 11 6 2 12 nan
nan 8 9 9 10 9 9 8 8 9 23 26 9 8 11 10 8 7 9 9 15 11 6 13 17 10 6 9 13 11 5 9 12 13 12 9 11 10 5 3 9 9 9 11 5 -3 nan
nan 8 8 8 9 10 9 7 9 10 25 27 9 10 9 8 12 11 8 5 11 13 10 17 16 7 6 9 8 11 9 7 8 9 9 10 7 9 9 8 6 7 5 6 5 2 nan
nan 8 7 8 9 8 7 7 9 11 28 23 8 8 11 12 7 6 10 9 9 9 11 13 8 10 14 12 14 11 7 9 8 9 8 8 9 9 12 16 10 10 12 11 12 14 nan
nan 8 8 8 8 8 8 8 8 14 26 17 10 10 9 9 11 11 9 10 11 5 9 12 11 6 5 11 14 12 11 14 15 11 10 9 8 7 9 10 15 18 20 14 10 15 nan
nan 8 9 8 8 8 9 9 8 11 18 18 10 10 10 11 10 8 11 12 11 13 10 5 11 10 6 10 6 8 10 12 9 10 13 9 7 7 9 10 11 13 17 16 10 7 nan
nan 8 9 8 9 8 9 9 9 8 16 20 11 10 10 12 8 8 13 9 5 10 10 9 8 9 11 11 10 8 8 9 10 10 8 9 8 8 12 10 9 11 12 15 12 9 nan
nan 9 9 9 9 8 8 8 9 9 16 19 12 10 10 11 7 10 15 10 7 8 8 8 8 10 13 11 12 11 9 9 11 13 11 8 8 6 8 11 11 8 7 13 10 12 nan
nan 10 10 10 10 9 8 8 9 9 14 19 12 11 12 10 6 12 13 9 9 11 10 9 9 9 10 12 11 9 10 11 12 11 9 9 11 10 8 7 10 12 13 6 5 13 nan
nan 9 10 10 10 10 9 9 9 9 13 16 15 9 10 11 9 8 10 13 10 11 13 9 7 9 11 12 10 11 10 8 13 14 11 8 8 11 11 7 12 14 11 9 8 9 nan
nan nan nan nan nan nan nan nan nan nan nan nan nan nan nan nan nan nan nan nan nan nan nan nan nan nan nan nan nan nan nan nan nan nan nan nan nan nan nan nan nan nan nan nan nan nan nan
CAPE
26 63 39 51 40 40 58 66 72 67 74 63 61 69 52 66 38 44 33 15 28 33 28 104 21 4 4 4 0 2 108 202 73 69 38 9 4 0 1 0 0 0 0 0 0 0 0
74 43 41 40 47 50 75 72 75 62 69 98 103 84 90 71 68 45 42 45 33 33 12 40 41 38 3 0 0 0 0 0 7 65 42 45 6 0 0 0 0 0 0 0 0 0 0
37 46 28 58 69 54 64 63 74 96 108 123 107 101 131 98 70 60 48 44 54 45 8 23 62 10 11 0 0 0 0 0 0 0 43 44 25 0 1 0 0 0 0 0 0 0 0
31 44 84 66 40 34 66 86 96 112 128 125 122 147 190 155 121 98 70 51 57 32 11 4 103 10 4 0 0 0 0 0 0 0 42 90 21 3 10 0 0 0 0 0 0 0 0
32 57 48 36 47 76 91 102 120 137 129 147 180 189 203 192 134 142 105 79 65 24 18 1 35 7 1 0 0 0 0 0 0 37 43 90 13 3 17 4 5 0 0 0 0 0 0
68 50 35 47 70 92 98 101 108 115 141 155 157 172 164 186 137 112 155 98 60 34 0 20 19 5 0 0 0 0 0 0 0 41 93 57 1 0 0 1 0 0 0 0 0 0 0
42 48 58 65 82 96 98 97 107 135 139 139 152 160 116 53 106 119 60 13 24 48 30 6 19 0 0 0 0 0 0 0 0 9 2 49 0 0 0 0 0 0 0 0 0 0 0
43 58 37 74 85 96 90 100 112 126 139 129 135 81 22 87 118 124 15 1 21 6 1 16 4 1 0 0 0 0 0 1 3 6 0 0 0 2 2 1 3 0 0 0 0 0 0
41 62 60 77 87 94 93 94 106 117 114 85 43 36 54 111 70 0 0 0 13 1 8 43 27 6 0 0 0 0 0 1 0 9 0 0 0 0 0 0 1 0 0 0 0 0 0
61 30 48 74 84 75 76 84 89 73 52 47 38 53 68 81 15 12 8 11 4 0 7 20 34 10 9 4 0 0 0 0 1 0 0 0 0 0 0 0 0 0 0 0 0 0 0
40 38 58 72 79 68 69 73 75 58 40 43 37 54 60 94 45 3 33 11 22 1 0 16 30 7 21 0 0 2 0 11 0 0 0 0 0 0 0 0 0 0 0 0 0 0 0
38 51 64 77 79 67 66 67 62 49 27 21 19 40 99 28 47 6 0 34 2 0 0 19 2 29 22 10 2 0 2 1 0 6 0 0 0 0 0 0 0 0 0 0 0 0 0
27 41 60 73 75 67 68 57 59 40 23 25 44 70 100 67 36 1 0 0 0 0 4 12 16 19 10 34 1 0 7 2 0 0 1 2 1 0 0 0 0 1 0 0 0 0 0
29 25 47 67 67 67 66 54 43 36 61 76 59 198 11 68 9 5 0 0 0 22 11 11 13 21 22 19 6 9 5 0 0 0 0 0 0 0 0 0 0 0 0 0 0 0 0
34 37 45 71 47 61 57 60 39 33 55 81 135 3 39 8 5 0 15 0 1 12 14 13 5 22 11 16 10 16 11 0 0 0 0 0 0 0 0 0 0 0 1 0 0 0 0
31 40 37 59 36 49 47 49 37 72 130 20 0 5 76 12 0 4 4 26 6 12 9 3 3 0 10 12 5 5 11 1 1 0 0 0 0 1 4 1 0 0 0 0 0 0 0
28 43 55 63 25 41 39 38 12 56 194 14 0 16 17 35 0 10 0 6 9 9 4 7 0 1 0 6 2 7 0 0 0 0 0 0 0 0 0 0 0 0 2 1 0 0 0
32 39 45 47 23 47 25 28 7 30 122 0 0 0 0 0 0 4 54 54 4 2 0 6 0 0 0 0 1 1 0 0 0 0 0 0 0 0 0 0 0 0 0 0 0 0 0
32 29 32 52 51 35 22 18 3 17 20 1 0 0 2 10 4 8 17 6 5 10 35 20 3 0 0 0 0 1 0 0 0 0 1 0 0 0 0 0 0 0 0 0 0 0 0
16 25 27 31 28 41 31 14 1 6 1 0 0 0 0 1 2 1 15 6 4 14 18 0 0 0 13 4 0 0 0 0 0 0 11 0 0 0 0 0 0 0 0 0 0 0 0
25 22 20 29 38 37 34 9 3 11 0 0 0 0 0 0 6 1 5 0 16 9 5 6 27 2 3 0 0 0 0 0 0 0 0 0 0 0 0 0 0 0 0 0 0 0 0
24 24 21 24 28 10 25 10 6 8 2 0 0 4 0 0 2 0 0 3 15 0 0 0 0 0 0 0 0 0 0 0 0 0 0 0 0 0 0 0 0 0 0 0 0 0 0
15 25 21 28 22 13 6 7 7 6 6 7 1 0 6 0 0 0 0 1 2 0 0 0 0 0 0 0 0 0 0 0 0 0 0 0 0 0 0 0 0 0 0 0 0 0 0
14 34 22 16 22 17 8 10 6 11 7 10 8 6 4 0 0 0 1 0 0 0 0 0 0 0 0 0 0 0 0 0 0 0 0 0 0 0 0 0 0 0 0 0 0 0 0
13 34 25 18 23 20 13 13 8 15 7 1 4 7 8 0 0 0 0 0 0 0 0 0 0 0 0 0 1 0 0 0 0 0 0 4 3 0 0 0 0 0 0 0 0 0 0
15 35 15 17 24 23 18 19 11 10 9 0 0 7 8 2 0 13 0 7 2 4 1 2 1 0 0 0 0 0 0 0 0 0 0 0 2 20 0 3 0 0 0 0 0 0 0
21 34 10 25 28 24 28 15 14 11 11 4 0 4 5 6 3 14 0 0 10 7 2 4 4 2 0 0 0 0 0 0 0 0 1 25 20 7 0 3 0 0 0 0 0 0 0
15 37 12 25 30 25 30 15 18 9 9 5 3 2 4 3 0 18 24 9 4 2 6 0 0 2 0 4 0 0 0 0 3 0 0 1 2 19 19 7 0 0 0 0 0 0 0
9 28 11 33 31 26 21 15 17 12 8 7 8 0 3 4 0 0 0 0 2 5 0 0 2 0 5 0 0 0 0 0 0 0 0 0 0 0 0 0 0 0 0 0 0 0 0